sat.trackr.live / text

‹ back to catalog

TURKSAT 4B

NORAD 40984 · 2015-060A

PAYLOAD ACTIVE UNKNOWN

§ Identity

Operator
Country
TURK
Launch date
2015-10-16
Launch site
TYMSC
Launch vehicle
Mass (kg)
RCS (m²)

Purposes: comms

External: N2YO · Heavens-Above · Gunter

§ Orbital elements

Epoch: 2026-09-09T02:18:58.013856Z

Period
1,436.08 min
Inclination
0.0335°
Eccentricity
0.0002208
Mean motion
1.00273039 rev/d
Perigee alt
35,776.9 km
Apogee alt
35,795.6 km
Semi-major
42,164.4 km
B*
0.0000e+0
RAAN
264.1510°
Arg perigee
282.6120°
Mean anomaly
246.1297°
Rev number
3,993

§ Raw data

TURKSAT 4B1 40984U 15060A   26252.09650479  .00000093  00000+0  00000+0 0  99942 40984   0.0335 264.1510 0002208 282.6120 246.1297  1.00273039 39930

JSON: /api/v1/satellites/40984 · /tle

For live sub-satellite position, see the globe view (requires WebGL).

§ Visibility from observer

Set your observer location to see the next 7 days of passes ≥ 10°. The values pass through the URL so the page stays shareable.

No JS? Fill the form by hand. The geolocation button needs JavaScript.